TIME,DELAY(SENSOR),PRES,T(CTD),SAL,OXYGEN,RAWTEMP,T(OPTODE),TCPHASE,FLUOR,BETA(BETA700),BETA(BETA412),BETA(BETA440),CDOM,C(CSC),ED(ED411.90),ED(ED443.80),ED(ED489.40),ED(ED554.70),LU(LU412.20),LU(LU443.80),LU(LU489.40),LU(LU555.00),COMP,TILTX,TILTX(TILTY),CHECK
1343230336,5807,496.7399902343750000,17.3806991577148440,36.4481010437011700,233.4031066894531200,175.6618957519531200,17.3821792602539060,31.0861701965332030,50,100,98,80,68,14174,2146952228,2147511789,2147267803,2147469522,2147086601,2146941650,2147657901,2147126738,143,-2,8,63855
1343230439,5806,486.1700134277344000,17.4731006622314450,36.4641990661621100,233.9046020507812500,172.7583007812500000,17.4697799682617200,31.0225906372070300,50,102,98,81,67,14172,2146954276,2147515904,2147268809,2147465664,2147086409,2146950052,2147653229,2147123803,671,-2,8,1147
1343230558,5807,475.4599914550781000,17.5303001403808600,36.4742012023925800,234.2626953125000000,171.0099029541015600,17.5225391387939450,30.9813499450683600,50,101,99,80,67,14173,2146953618,2147514459,2147266605,2147465974,2147085586,2146946560,2147650532,2147118061,1060,-2,8,44586
1343230709,5806,464.5199890136719000,17.6030998229980470,36.4874992370605500,234.8448944091797000,168.4571990966797000,17.5995693206787100,30.9189090728759770,50,102,98,80,68,14171,2146953426,2147512045,2147267785,2147464036,2147085961,2146955273,2147658605,2147127140,820,-2,8,36624
1343230866,5806,452.1000061035156000,17.6553001403808600,36.4973983764648440,235.4752960205078000,166.7559967041015600,17.6508998870849600,30.8653392791748050,50,102,98,79,67,14173,2146955428,2147514541,2147266788,2147465298,2147086637,2146954166,2147653302,2147119588,1108,-2,8,35163
1343230981,5805,441.2000122070312500,17.7005004882812500,36.5051994323730500,235.7532958984375000,165.2304992675781200,17.6969509124755860,30.8313598632812500,51,101,98,80,68,14171,2146957421,2147512978,2147271113,2147465051,2147086674,2146952128,2147652233,2147121206,683,-2,7,27380
1343231096,5808,430.4800109863281000,17.7516002655029300,36.5140991210937500,236.2129974365234400,163.6098022460937500,17.7458591461181640,30.7876605987548830,50,99,97,79,68,14171,2146954413,2147515913,2147263140,2147464685,2147086747,2146954587,2147653741,2147118802,580,-2,8,42068
1343231214,5807,419.6499938964844000,17.8069992065429700,36.5233001708984400,235.9714050292968800,161.7191009521484400,17.8029403686523440,30.7739295959472660,50,103,98,79,67,14171,2146953078,2147511698,2147265782,2147467840,2147086317,2146956324,2147653092,2147115465,304,-2,8,36241
1343231341,5807,408.1700134277344000,17.8645992279052730,36.5336990356445300,236.7617950439453000,159.7310943603515600,17.8629608154296880,30.7091598510742200,51,101,98,81,67,14171,2146951003,2147513307,2147266432,2147464658,2147088438,2146953947,2147652416,2147120256,641,-2,8,51993
1343231458,5805,397.5499877929687500,17.9333992004394530,36.5432014465332000,237.0364990234375000,157.4270019531250000,17.9325199127197270,30.6653995513916000,50,100,98,78,67,14171,2146953261,2147514998,2147266038,2147461211,2147089261,2146956141,2147653302,2147121600,888,-2,8,9085
1343231585,5806,386.0899963378906000,17.9762992858886720,36.5503005981445300,237.0791015625000000,156.0700073242187500,17.9734992980957030,30.6452903747558600,50,100,98,80,68,14170,2146953042,2147512585,2147267602,2147462930,2147088219,2146949156,2147649810,2147121654,852,-2,8,60973
1343231712,5807,374.7500000000000000,18.0163002014160160,36.5558013916015600,236.8898010253906200,154.8249053955078000,18.0111007690429700,30.6373691558837900,51,101,98,81,66,14170,2146952457,2147511798,2147269348,2147462546,2147087734,2146951606,2147653357,2147124416,773,-2,8,38192
1343231830,5801,364.1799926757812500,18.0681991577148440,36.5625991821289060,236.6927947998047000,153.0807037353515600,18.0637798309326170,30.6238403320312500,50,101,98,81,67,14171,2146952585,2147512694,2147268918,2147463872,2147084580,2146955081,2147654445,2147119268,564,-2,8,46851
1343231957,5808,352.9599914550781000,18.1238994598388670,36.5721015930175800,236.5121002197265600,151.2245941162109400,18.1198501586914060,30.6074008941650400,50,102,97,81,66,14170,2146952109,2147513600,2147272018,2147463003,2147087945,2146954496,2147649883,2147120521,422,-2,8,64340
1343232086,5806,341.7600097656250000,18.1732006072998050,36.5774993896484400,236.5222930908203000,149.6432952880859400,18.1676101684570300,30.5860805511474600,51,100,98,79,67,14165,2146954779,2147509220,2147273673,2147461915,2147088283,2146951305,2147655515,2147123081,659,-2,7,56351
1343232225,5806,330.0199890136719000,18.2259998321533200,36.5817985534668000,235.4770965576172000,147.7528076171875000,18.2247295379638670,30.6108093261718750,50,102,97,80,67,14167,2146955702,2147515053,2147275483,2147460059,2147084754,2146954697,2147652800,2147116708,354,-2,8,17554
1343232352,5805,319.4899902343750000,18.2798004150390620,36.5866012573242200,234.6255035400390600,146.1127929687500000,18.2742900848388670,30.6299400329589840,50,101,98,81,67,14167,2146954532,2147513106,2147277184,2147460342,2147085723,2146956333,2147658212,2147115757,260,-2,8,53321
1343232482,5808,308.8800048828125000,18.3395004272460940,36.5909996032714840,233.7599029541015600,144.1233062744140600,18.3344097137451170,30.6452102661132800,50,104,99,81,68,14160,2146951387,2147516315,2147280905,2147463149,2147088210,2146959259,2147659145,2147119542,272,-2,8,41332
1343232621,5804,297.7699890136719000,18.3994998931884770,36.5959014892578100,232.4196014404297000,142.1412048339843800,18.3943195343017580,30.6836891174316400,50,103,100,81,67,14162,2146955803,2147517229,2147288219,2147463762,2147087570,2146955172,2147662573,2147126802,284,-2,8,14827
1343232762,5803,286.7200012207031000,18.4645996093750000,36.5979003906250000,230.5142974853515600,140.0016021728515600,18.4589996337890620,30.7483196258544920,51,104,98,82,68,14159,2146953929,2147522934,2147296932,2147462893,2147090112,2146958784,2147663323,2147125394,2900,-2,8,43521
1343232901,5804,275.8299865722656000,18.5375995635986330,36.6030006408691400,229.0397949218750000,137.5422973632812500,18.5333499908447270,30.7881698608398440,50,104,99,81,69,14153,2146951881,2147520914,2147302070,2147459876,2147086500,2146962294,2147672173,2147126043,2950,-2,8,37282
1343233049,5804,263.7900085449219000,18.5916004180908200,36.5928001403808600,229.8208007812500000,135.5780029296875000,18.5927505493164060,30.7235603332519530,50,104,98,80,68,14156,2146957083,2147526774,2147318409,2147459638,2147087963,2146961819,2147675190,2147120347,2988,-2,8,3751
1343233163,5804,252.6699981689453000,18.6567001342773440,36.5792007446289060,234.7129058837890600,133.1134033203125000,18.6672897338867200,30.4531192779541000,51,104,99,82,68,14154,2146956891,2147532589,2147338688,2147458834,2147086756,2146965056,2147684553,2147122038,3369,-2,8,27358
1343233266,5806,242.3800048828125000,18.7705001831054700,36.5709991455078100,235.5780944824218800,130.4028015136718800,18.7492904663085940,30.3755207061767580,50,105,99,80,66,14154,2146955401,2147542454,2147361874,2147461568,2147086957,2146972224,2147701659,2147126838,2341,-3,8,25854
1343233384,5805,230.8200073242187500,18.8714008331298830,36.5643997192382800,241.0511932373047000,126.4954986572265600,18.8675193786621100,30.0668792724609380,50,105,99,81,66,14155,2146956790,2147558290,2147403684,2147459520,2147086966,2146990281,2147721920,2147130148,1987,-2,8,63749
1343233499,5805,219.5899963378906200,19.0034008026123050,36.5680999755859400,243.9611053466797000,121.8572998046875000,19.0079193115234380,29.8720207214355470,51,102,97,82,66,14153,2146960804,2147574189,2147452242,2147460681,2147086619,2146998537,2147752813,2147133056,2260,-2,8,35379
1343233614,5804,208.7599945068359400,19.2096996307373050,36.5914993286132800,246.6013946533203000,115.2399978637695300,19.2083301544189450,29.6661796569824220,52,106,100,80,65,14149,2146961572,2147601435,2147516708,2147455168,2147091364,2147021110,2147792521,2147132909,1906,-2,8,51546
1343233732,5804,197.9600067138672000,19.2390995025634770,36.5764007568359400,251.9750061035156200,114.3827972412109400,19.2343006134033200,29.4163398742675780,55,110,101,82,64,14147,2146965467,2147642605,2147623286,2147458816,2147095579,2147053668,2147848045,2147140059,2305,-2,8,60487
1343233787,5803,192.9700012207031200,19.2446002960205080,36.5709991455078100,252.9187011718750000,114.1251983642578100,19.2421092987060550,29.3718891143798830,58,111,101,82,65,14140,2146969371,2147661604,2147680694,2147457398,2147092342,2147068160,2147879030,2147143241,2445,-2,8,23587
1343233842,5807,188.0200042724609400,19.2560997009277340,36.5695991516113300,254.0066070556640600,113.8114013671875000,19.2516098022460940,29.3203601837158200,60,109,99,80,65,14137,2146973248,2147692617,2147747602,2147460059,2147100873,2147082925,2147910555,2147142226,2691,-2,8,11672
1343233897,5804,183.1900024414062500,19.2504997253417970,36.5639991760253900,254.1976013183593800,113.9581985473632800,19.2471694946289060,29.3138809204101560,63,114,100,82,64,14137,2146981659,2147727561,2147828653,2147458386,2147098331,2147109430,2147958043,2147142765,2990,-2,8,3047
1343233952,5804,178.3699951171875000,19.2714004516601560,36.5679016113281250,254.4098052978515600,113.4004974365234400,19.2640590667724600,29.2975807189941400,65,114,100,81,64,14138,2146988032,2147764544,2147909092,2147458980,2147098870,2147136905,2147999040,2147146029,2884,-2,8,34988
1343234027,5806,172.0700073242187500,19.2887001037597660,36.5644989013671900,254.1495056152343800,112.6353988647461000,19.2872505187988280,29.2990798950195300,72,118,99,83,64,14125,2146997741,2147833088,2148061211,2147458688,2147108544,2147174400,2148069238,2147147117,2983,-2,8,17576
1343234082,5804,167.7500000000000000,19.3036994934082030,36.5661010742187500,254.1293945312500000,112.2153015136718800,19.2999801635742200,29.2943992614746100,74,120,100,83,65,14120,2147011264,2147892132,2148179867,2147459565,2147110107,2147202971,2148127716,2147153929,3150,-2,8,12986
1343234137,5804,163.4499969482422000,19.3078994750976560,36.5680007934570300,254.1900939941406200,111.9621963500976600,19.3076496124267580,29.2885093688964840,76,117,101,82,65,14117,2147027867,2147965165,2148348571,2147461202,2147125065,2147246436,2148210861,2147155638,3258,-2,8,7766
1343234192,5804,159.0899963378906200,19.3355998992919920,36.5704994201660160,253.9488983154297000,111.1492996215820300,19.3322792053222660,29.2885894775390620,80,120,101,83,65,14115,2147031762,2147980105,2148334829,2147458880,2147120923,2147259245,2148212690,2147160493,3377,-2,8,52047
1343234247,5803,154.7700042724609400,19.3631992340087900,36.5714988708496100,254.0962066650390600,110.2440032958984400,19.3597202301025400,29.2704792022705080,85,124,101,84,65,14108,2147066276,2148152850,2148727360,2147463744,2147142756,2147359981,2148385261,2147166994,3312,-2,8,20859
1343234302,5803,150.4499969482422000,19.3799991607666000,36.5708999633789060,254.3930969238281200,109.7647018432617200,19.3742504119873050,29.2513408660888670,88,124,102,83,65,14102,2147094317,2148289910,2149003693,2147464411,2147157979,2147424640,2148513664,2147177408,2925,-2,8,63551
1343234381,5804,144.6100006103515600,19.3973999023437500,36.5730018615722660,254.5424041748047000,109.1462020874023400,19.3929996490478500,29.2370605468750000,95,129,102,83,65,14098,2147116434,2148327826,2149004882,2147467794,2147167094,2147437001,2148501942,2147178733,3366,-3,8,44195
1343234436,5803,141.0099945068359400,19.4123992919921880,36.5741996765136700,254.6716003417968800,108.6816024780273400,19.4070796966552730,29.2253704071044920,97,132,104,85,65,14090,2147189714,2148674240,2149769563,2147470710,2147200502,2147622912,2148833728,2147198866,3540,-2,8,10695
1343234503,5807,136.8200073242187500,19.4232997894287100,36.5751991271972660,254.8363952636718800,108.2133026123046900,19.4212799072265620,29.2124290466308600,105,134,103,84,65,14089,2147248813,2148875090,2150116708,2147477412,2147224923,2147714706,2148976722,2147208649,101,-2,8,7655
1343234558,5805,133.4100036621093800,19.4370002746582030,36.5763015747070300,254.8276977539062500,107.8262023925781200,19.4330101013183600,29.2076702117919920,105,133,103,85,64,14084,2147297892,2149049801,2150403949,2147480082,2147255122,2147794505,2149096804,2147223149,269,-3,8,28780
1343234625,5801,129.3999938964843800,19.4493999481201170,36.5761985778808600,255.0675964355468800,107.4349975585937500,19.4448699951171880,29.1924400329589840,109,131,102,84,64,14082,2147416018,2149457124,2151162496,2147489316,2147300580,2147976512,2149401417,2147242294,275,-3,8,59045
1343234704,5807,125.3300018310546900,19.4860992431640620,36.5768013000488300,255.7037048339843800,106.2608032226562500,19.4804706573486330,29.1499900817871100,118,128,102,83,64,14082,2147513188,2149755245,2151610916,2147500242,2147338395,2148104987,2149566710,2147257289,243,-2,8,37746
1343234795,5806,121.7699966430664000,19.5004005432128900,36.5716018676757800,257.4159851074219000,105.7879028320312500,19.4948196411132800,29.0704002380371100,120,124,102,84,66,14086,2147696182,2150353636,2152638409,2147515520,2147418002,2148347300,2149958262,2147291309,319,-2,8,8379
1343234898,5804,117.9899978637695300,19.5307998657226560,36.5713005065918000,260.2773132324219000,104.8094024658203100,19.5244903564453120,28.9366607666015620,114,121,101,84,67,14093,2147950674,2151137728,2153921307,2147537563,2147506989,2148664877,2150437485,2147328310,845,-2,8,62300
1343235010,5804,113.5999984741211000,19.5991992950439450,36.5792999267578100,264.8619995117187500,102.6104965209961000,19.5911808013916000,28.7176704406738280,105,121,101,84,67,14087,2148324662,2152128566,2155365321,2147566710,2147633097,2149047771,2150981723,2147372598,945,-2,8,6548
1343235089,5804,109.6600036621093800,19.6371002197265620,36.5705986022949200,266.6575012207031000,101.1371002197265600,19.6358795166015620,28.6254997253417970,111,121,101,84,68,14079,2148719597,2153114678,2156703314,2147605257,2147787300,2149420726,2151459117,2147420553,1183,-2,8,20281
1343235168,5803,105.7900009155273400,19.7056007385253900,36.5723991394043000,268.7030944824219000,99.0582275390625000,19.6989498138427730,28.5158996582031250,112,121,103,85,66,14065,2149356397,2154722038,2158941778,2147660571,2148021842,2150065179,2152307373,2147501549,1582,-2,8,62423
1343235259,5805,101.6800003051757800,19.8055000305175780,36.5787010192871100,269.0274047851562500,95.6078872680664000,19.8036708831787100,28.4591808319091800,109,124,102,84,65,14057,2150080283,2156374070,2160953773,2147716608,2148304137,2150726208,2153075931,2147578075,1623,-2,8,37721
1343235329,5804,98.8300018310546900,19.8838005065917970,36.5806007385253900,272.1756896972656000,93.3010482788086000,19.8737106323242200,28.3039302825927730,109,124,103,85,64,14051,2151018185,2158618752,2163931318,2147804214,2148682048,2151674733,2154269302,2147684891,1896,-3,8,58536
1343235384,5805,96.8199996948242200,19.8918991088867200,36.5796012878418000,273.4458923339844000,92.8881835937500000,19.8862495422363280,28.2483406066894530,106,124,103,84,66,14052,2151705069,2160144146,2165799762,2147862473,2148952877,2152320420,2155034404,2147763318,1957,-2,8,54109
1343235439,5803,94.9400024414062500,19.9090003967285160,36.5772018432617200,273.9284973144531000,92.2406692504882800,19.9059104919433600,28.2211894989013670,109,123,103,85,65,14050,2152303981,2161237714,2166867218,2147908763,2149206427,2152799597,2155451776,2147809938,1637,-2,8,11839
1343235494,5804,93.0999984741211000,19.9866008758544920,36.5747985839843750,273.9624938964844000,89.9355926513671900,19.9759197235107420,28.1909294128417970,104,126,103,86,65,14040,2153437302,2163721965,2170014473,2148016192,2149671195,2153901705,2156790921,2147935158,1312,-2,8,51015
1343235561,5804,90.9899978637695300,20.0352001190185550,36.5752983093261700,274.5062866210937500,88.2557067871093800,20.0269508361816400,28.1484603881835940,101,131,104,86,64,14038,2153846272,2164104457,2169814546,2148038820,2149870381,2154130377,2156770678,2147949650,1116,-3,8,23129
1343235640,5806,87.9199981689453100,20.0862007141113280,36.5794982910156250,275.2473144531250000,86.1669082641601600,20.0904197692871100,28.0931396484375000,98,130,104,85,64,14026,2151539300,2157580562,2159639634,2147754029,2148966354,2151418596,2152790601,2147589458,143,-2,8,31459
1343235695,5804,84.9400024414062500,20.1889991760253900,36.5890007019043000,276.8823852539062500,82.9265518188476600,20.1889095306396500,27.9888992309570300,95,129,105,86,64,14031,2152316827,2158765193,2160625435,2147801910,2149344941,2152084772,2153355757,2147648219,3377,-2,8,49135
1343235750,5805,81.9499969482421900,20.3523998260498050,36.5990982055664060,278.6299133300781000,77.5523529052734400,20.3523406982421880,27.8543395996093750,94,128,104,86,63,14020,2152896283,2159323172,2160767250,2147842633,2149629668,2152396644,2153406893,2147663085,3242,-2,8,59104
1343235805,5806,78.9899978637695300,20.4475002288818360,36.6053009033203100,279.9855041503906000,74.5418167114257800,20.4439392089843750,27.7647590637207030,92,131,106,88,62,14012,2154919021,2162911497,2164699145,2148028022,2150574509,2154207469,2155207826,2147838848,3477,-2,8,33043
1343235860,5807,76.1500015258789000,20.5410003662109380,36.5948982238769500,280.6037902832031000,71.8944015502929700,20.5245304107666000,27.7083396911621100,88,132,106,88,63,13998,2155090194,2162558729,2163630902,2147989760,2150732992,2154238784,2154960365,2147821540,428,-2,8,3688
1343235915,5803,73.5500030517578100,20.6028003692626950,36.5937995910644500,280.2146911621094000,69.2262268066406200,20.6057701110839840,27.6903190612792970,89,131,107,87,63,13990,2155030509,2161660854,2161971757,2147952978,2150757677,2153888420,2154254811,2147761938,1114,-3,8,46425
1343235973,5807,71.0800018310546900,20.7817993164062500,36.5886993408203100,280.0880126953125000,63.9894104003906250,20.7653007507324220,27.6303806304931640,86,136,107,89,61,13976,2159643282,2169346148,2170188644,2148416612,2152969225,2157856749,2158067081,2148157961,1730,-2,8,35812
1343236028,5805,69.2099990844726600,20.8628997802734380,36.5947990417480500,280.5502014160156000,61.6229705810546900,20.8374290466308600,27.5834999084472660,80,132,106,87,61,13984,2165412178,2178958555,2180489782,2149030080,2155850797,2163038884,2163031917,2148666486,2147,-2,9,49691
1343236083,5805,67.4700012207031200,20.9265995025634770,36.5982017517089840,280.8400878906250000,59.1136283874511700,20.9139404296875000,27.5415897369384770,79,134,107,88,62,13979,2169443483,2184823030,2185767725,2149295908,2158043785,2166613385,2166023972,2148957568,2356,-2,8,22640
1343236138,5809,65.7200012207031200,21.0403003692626950,36.5912017822265600,280.7914123535156000,55.5770492553710940,21.0218200683593750,27.5000190734863280,80,136,108,88,62,13970,2184012297,2209334025,2213083931,2151143424,2165432320,2179961837,2179279222,2150331456,2693,-3,8,3731
1343236193,5807,64.2600021362304700,21.0604991912841800,36.5903015136718750,281.1516113281250000,54.4656295776367200,21.0557308197021500,27.4725494384765620,80,132,107,88,61,13975,2189878765,2218370267,2223145636,2152209618,2168404022,2184774482,2183641042,2150876608,2646,-3,8,2974
1343236295,5805,61.3800010681152340,21.2502994537353500,36.5834007263183600,281.2286071777344000,48.4117393493652340,21.2405490875244140,27.3953094482421880,75,133,108,87,59,13960,2199509568,2231292480,2235763648,2153777069,2174282816,2193541184,2191059830,2151784155,2256,-2,8,21321
1343236350,5806,59.1599998474121100,21.3150005340576170,36.5754013061523440,281.3893127441406000,46.1081390380859400,21.3109207153320300,27.3610191345214840,73,135,110,88,60,13972,2206803547,2240519213,2244298496,2154869558,2178908470,2199901138,2195929856,2152395245,2303,-2,8,15220
1343236405,5806,57.1300010681152340,21.3561000823974600,36.5751991271972660,281.8518981933594000,44.5741081237793000,21.3577995300292970,27.3248405456542970,71,133,108,89,61,13974,2210475638,2243648310,2246618834,2155772041,2181736694,2203036059,2197837202,2152697526,3187,-2,9,12918
1343236460,5805,55.2400016784668000,21.3971996307373050,36.5751991271972660,281.9461059570312500,43.3217506408691400,21.3960800170898440,27.3060207366943360,73,132,107,88,61,13968,2214663826,2247974793,2250521810,2156668196,2185080448,2207071268,2200766253,2153163218,425,-2,8,46253
1343236602,5806,51.6699981689453100,21.6198997497558600,36.5617980957031250,281.5704956054687500,36.7195701599121100,21.5979804992675780,27.2395191192626950,67,134,108,88,59,13960,2225854253,2257841097,2255485888,2157717869,2194536877,2218403236,2207976502,2153962752,278,-2,8,50703
1343236659,5806,50.5900001525878900,21.7070999145507800,36.5573005676269500,281.3918151855469000,33.7236099243164060,21.6896705627441400,27.2096500396728500,67,134,111,89,61,13965,2213162605,2238320603,2235251401,2155950976,2187943076,2207167058,2197703835,2152824237,444,-2,8,31700
1343236719,5806,48.6899986267089840,22.0659999847412100,36.5784988403320300,280.1491088867187500,22.7818393707275400,22.0249195098876950,27.1232795715332030,65,138,109,90,59,13956,2206225892,2226536100,2222580836,2155139940,2184384813,2199765138,2190166838,2152062189,715,-2,8,17189
1343236778,5807,46.9000015258789060,22.2031002044677730,36.5993003845214840,280.0805053710937500,17.4011402130126950,22.1900005340576170,27.0606498718261720,64,134,108,88,60,13965,2193439798,2207542838,2202762752,2152934482,2177428489,2188383168,2179660598,2150812352,1180,-3,8,6573
1343236850,5805,44.6399993896484400,22.4855995178222660,36.5755004882812500,278.7260131835937500,8.5246772766113280,22.4626808166503900,27.0040092468261720,65,132,110,88,61,13973,2236987053,2266359853,2263009234,2162101659,2209575286,2233892123,2217629540,2155712475,1250,-3,8,19770
1343236972,5806,42.8600006103515600,22.5872993469238280,36.5349006652832000,278.2031860351562500,4.5734620094299320,22.5841999053955080,26.9760494232177730,64,132,108,88,59,13968,2201227666,2215972388,2211103725,2155257152,2185015296,2196827126,2185621220,2151786249,259,-2,9,11451
1343237274,5802,40.7200012207031250,23.0788993835449220,36.5105018615722660,273.2026977539062500,-10.8612203598022460,23.0597400665283200,26.9806098937988280,62,135,106,88,61,13976,2200342921,2210688557,2202953462,2154493421,2187227702,2195974774,2182455058,2151401892,1309,-1,9,35533
1343237346,5808,38.9399986267089840,23.3356990814209000,36.4370994567871100,271.3598937988281000,-19.3356399536132800,23.3214302062988280,26.9493198394775400,61,130,105,89,61,13978,2269501924,2301073801,2295669522,2171851776,2240243922,2264836178,2237374052,2159434934,969,-3,8,44663
1343237622,5805,36.6800003051757800,23.6723995208740230,36.3805007934570300,267.8658142089844000,-30.2156505584716800,23.6580696105957030,26.9543800354003900,61,131,105,86,60,13982,2305425673,2343572653,2337539629,2182318372,2277588571,2309099849,2270137051,2164413586,1059,-2,9,35812
1343237694,5807,34.7299995422363300,23.7609004974365230,36.3748016357421900,266.8793945312500000,-33.7494697570800800,23.7675800323486330,26.9504909515380860,60,133,109,88,57,13982,2314345088,2352276708,2346155501,2187530048,2289593453,2320900370,2277427693,2165995309,698,-2,8,12189
1343237984,5803,32.9700012207031250,24.7579002380371100,36.3286018371582000,260.0281982421875000,-64.4653167724609400,24.7229595184326170,26.8528709411621100,58,131,107,87,58,13979,2323283858,2362336941,2356818706,2192294646,2303159643,2333627885,2284101476,2167166857,3493,-3,9,14123
1343238506,5803,30.7900009155273440,25.5997009277343750,36.2956008911132800,250.8209991455078000,-93.0040435791015600,25.6168098449707030,26.8862094879150400,59,128,106,88,59,13971,2335318253,2375121426,2369999314,2200426706,2322770779,2353331931,2296866441,2170007030,3318,-2,8,48962
1343238860,5805,28.8700008392334000,26.1322002410888670,36.2751998901367200,246.0462036132812500,-110.2174987792968800,26.1590690612792970,26.8792705535888670,59,130,105,87,61,13979,2344290459,2385627346,2380819328,2208611657,2339877001,2369607168,2307984941,2173013074,2364,-3,8,44829